Content
SEND FEEDBACK

Daily
Averages
Monthly
Summary
United States of America

ARCATA, CALIFORNIA


Home > North America > United States > California
Elevation: 217 feet     Latitude: 40 58N     Longitude: 124 06W

WEATHER
 
SELECT A DAY
Number of Records: 239,516;   Date Range: 1/1/95 - 7/23/14
 
SHARE

PRINT THIS DATA

[ ← Previous Day ]
WEATHER ALMANAC - AUGUST 18, 2013
[ Next Day → ]
[ °C ]   °F
Weather ElementAverageHighLow
Temperature58.5 °F66 °F (4:53 pm)54 °F (8:53 pm)
Dewpoint56.1 °F57.9 °F (11:53 am)53.1 °F (8:53 pm)
Humidity91.9 %100 % (7:21 am)68 % (4:53 pm)
Barometer29.99 in30.03 in (1:53 am)29.95 in (6:53 pm)
Wind Speed4.4 mph12.7 mph (5:53 pm)
Weather ElementAverage
Visibility5.7 mi
Wind DirectionSW (227.9 °)

Weather ElementTotal
Precipitation---
Heating Degree Days5 (Base 65)
Growing Degree Days10 (Base 50)
Averaged from 39 records on August 18, 2013
WEATHER CONDITIONS BREAKOUT
WIND DIRECTION BREAKOUT
WEATHER BY HOUR - AUGUST 18, 2013
[ °C ]   °F
Local TimeTemperatureDewpointHumidityBarometerVisibilityWind DirectionWind SpeedGust SpeedPrecipitationEventsConditions
1:53 AM57.9 °F57.0 °F97 %30.03 in8.0 miCalmOvercast
2:53 AM57.9 °F57.0 °F97 %30.01 in5.0 miCalmOvercast
3:53 AM57.9 °F57.0 °F97 %30.01 in6.0 miSSE (160°)3.5 mphOvercast
4:53 AM57.9 °F57.0 °F97 %30.00 in10.0 miCalmOvercast
5:41 AM57.2 °F55.4 °F94 %29.98 in3.0 miNNW (330°)3.5 mphOvercast
5:53 AM57.0 °F55.9 °F96 %30.00 in2.5 miNNW (330°)4.6 mphOvercast
6:06 AM57.2 °F55.4 °F94 %29.99 in4.0 miCalmOvercast
6:46 AM57.2 °F55.4 °F94 %29.99 in1.8 miNNW (340°)6.9 mphOvercast
6:53 AM57.0 °F55.9 °F96 %30.01 in1.2 miNorth (350°)5.8 mphOvercast
7:06 AM57.2 °F55.4 °F94 %29.99 in0.2 miNW (320°)3.5 mphFogFog
7:21 AM55.4 °F55.4 °F100 %30.00 in0.8 miNNW (340°)3.5 mphMist
7:30 AM57.2 °F55.4 °F94 %29.99 in1.2 miNNW (340°)3.5 mphOvercast
7:43 AM57.2 °F57.2 °F100 %30.00 in2.0 miCalmOvercast
7:53 AM57.0 °F57.0 °F100 %30.01 in4.0 miCalmOvercast
8:53 AM57.0 °F57.0 °F100 %30.01 in6.0 miNW (310°)3.5 mphOvercast
9:53 AM59.0 °F57.0 °F93 %30.01 in10.0 miWSW (250°)3.5 mphOvercast
10:23 AM57.2 °F57.2 °F100 %30.00 in2.0 miWNW (290°)4.6 mphOvercast
10:35 AM57.2 °F57.2 °F100 %30.00 in4.0 miNW (320°)4.6 mphOvercast
10:44 AM57.2 °F57.2 °F100 %30.00 in1.8 miNW (310°)6.9 mphOvercast
10:53 AM57.9 °F57.0 °F97 %30.01 in0.5 miNW (320°)5.8 mphFogFog
11:37 AM60.8 °F57.2 °F88 %30.00 in1.8 miNW (310°)3.5 mphOvercast
11:40 AM60.8 °F57.2 °F88 %30.00 in3.0 miNW (320°)4.6 mphOvercast
11:53 AM60.1 °F57.9 °F93 %30.01 in10.0 miWNW (300°)4.6 mphOvercast
12:53 PM61.0 °F57.0 °F87 %30.00 in10.0 miWNW (300°)4.6 mphOvercast
1:19 PM60.8 °F57.2 °F88 %29.99 in1.8 miNW (310°)8.1 mphOvercast
1:53 PM59.0 °F57.0 °F93 %30.01 in0.5 miNNW (330°)5.8 mphFogFog
2:06 PM60.8 °F57.2 °F88 %29.99 in2.5 miNW (320°)3.5 mphOvercast
2:13 PM60.8 °F57.2 °F88 %29.98 in10.0 miWNW (300°)5.8 mphOvercast
2:38 PM62.6 °F55.4 °F77 %29.98 in10.0 miVariable6.9 mphScattered Clouds
2:53 PM63.0 °F55.9 °F78 %30.00 in10.0 miVariable4.6 mphClear
3:53 PM64.0 °F55.9 °F75 %29.99 in10.0 miWNW (300°)6.9 mphClear
4:53 PM66.0 °F55.0 °F68 %29.97 in10.0 miNNW (330°)10.4 mphClear
5:53 PM60.1 °F54.0 °F80 %29.96 in10.0 miNNW (340°)12.7 mphClear
6:53 PM59.0 °F54.0 °F83 %29.95 in10.0 miNNW (340°)8.1 mphClear
7:53 PM57.0 °F54.0 °F89 %29.95 in9.0 miNW (320°)4.6 mphClear
8:53 PM54.0 °F53.1 °F97 %29.95 in10.0 miSouth (170°)4.6 mphClear
9:53 PM55.0 °F54.0 °F96 %29.96 in10.0 miSE (140°)4.6 mphClear
10:53 PM55.0 °F54.0 °F96 %29.96 in10.0 miCalmClear
11:53 PM55.9 °F54.0 °F93 %29.96 in10.0 miSSE (150°)3.5 mphClear
Hourly data recorded from KACV, located miles away from Arcata, California







STORIES FROM OUR PARTNERS